COSMOS 2251 DEB, 36073

Orbit data source: Space-Track

COSMOS 2251 DEB, 36073 is space debris in LEO originally from a launch on Wed, 16 Jun 1993 UTC launched from the Plesetsk Missile And Space Complex (PKMTR). The debris from Iridium 33, an American commercial communications satellite, has been tracked extensively since its accidental collision with the defunct Russian satellite Cosmos 2251 in 2009. This event, occurring at high speed in low Earth orbit (LEO), generated thousands of pieces of space debris, significantly increasing the risk of further collisions. The Iridium 33 debris cloud has impacted space traffic management and orbital debris mitigation strategies, making it a subject of ongoing study in space situational awareness.

Loading next visibility...
Identifier
36073, 1993-036AYL
Orbit
LEO
Country
Flag of CISCIS
Related business
Manufacturer
Unknown
Mission
Spacecraft
Bus & Motor
Unknown
Mass
Unknown
Launch date (UTC)
1993-06-16 (33 years ago)
Launch vehicle
Unknown
Launch site
Plesetsk Missile And Space Complex (PKMTR)
Object type
Payload
Rocket body
Debris
Shape & HBR
Unknown shape, 0.1 m
Radar Cross Section
Small (<0.1 m²)

Expand to show TLE details & history
Last TLE update: 19 hours ago

TLE from 19 hours ago
0 COSMOS 2251 DEB
1 36073U 93036AYL 26123.10290204  .00000477  00000-0  17568-3 0  9990
2 36073  74.0325  63.3791 0023646 101.8570 258.5236 14.35138268722355
Epoch: 2026-05-03T02:28Z
TLE epoch observation values (Epoch: 2026-05-03T02:28:10.736Z)
Latitude
-0.00001°
Longitude
165.3231°
Altitude
780.621 km
Speed
7.462 km/s
True Right ascension
04h 13m 30s
True Declination
0° 00' 00"
Sunlit
Object was in daylight at epoch
Visualization orbit readout
Latitude
Unknown
Longitude
Unknown
Altitude
Unknown
Speed
Unknown
Apparent Right ascension
Unknown
Apparent Declination
Unknown
Sunlit
N/A
Visualization observer readout
Local Sidereal Time
05:36:46
Azimuth
Unknown
Elevation
Unknown
Doppler factor
Unknown
Orbital elements
Apogee altitude
789.14 km
Perigee altitude
755.324 km
Semi-major axis
7,150.369 km
Eccentricity
0.00236
Inclination
74.0325°
RAAN
63.3791°
Arg. of periapsis
101.857°
True anomaly
258.25821°
Mean anomaly
258.5236°
Eccentric anomaly
258.39089°
Mean motion
3.58964 °/min
Orbital period
100.29 mins
BSTAR
0.00017568
Loading maneuver chart data...
Computing Atmospheric mass density...

Documentation

Showing up to 5 results
|